DW9996 Weather Reports


time (UTC)temp
C
wind
direction
speed
KPH
gust
KPH
rain 1hr
cm
rain 24hr
cm
rain mn
cm
humidity
%
barometer
mb
20260902060016 16 108 0.0 0.0 0.00 0.00 0.00 49 1003.1
20260902054516 17 108 0.0 0.0 0.00 0.00 0.00 46 1003.1
20260902053016 18 108 0.0 0.0 0.00 0.00 0.00 45 1003.1
20260902051514 18 108 0.0 0.0 0.00 0.00 0.00 44 1003.2
20260902050014 18 140 0.0 3.2 0.00 0.00 0.00 44 1003.2
20260902044513 18 149 0.0 4.8 0.00 0.00 0.00 44 1003.3
20260902043012 18 195 3.2 6.4 0.00 0.00 0.00 44 1003.3
20260902041512 19 167 0.0 6.4 0.00 0.00 0.00 43 1003.4
20260902040013 19 169 3.2 8.0 0.00 0.00 0.00 43 1003.5
20260902034513 20 164 0.0 8.0 0.00 0.00 0.00 41 1003.6
20260902033022 20 190 4.8 11.3 0.00 0.00 0.00 40 1003.6
20260902031511 21 192 8.0 12.9 0.00 0.00 0.00 39 1003.6
20260902030009 21 189 8.0 12.9 0.00 0.00 0.00 39 1003.5
20260902024509 21 175 8.0 11.3 0.00 0.00 0.00 38 1003.4
20260902023008 21 201 8.0 11.3 0.00 0.00 0.00 36 1003.4
20260902021522 23 179 0.0 3.2 0.00 0.00 0.00 30 1003.4
20260902020011 23 149 0.0 1.6 0.00 0.00 0.00 29 1003.4
20260902014507 25 149 0.0 3.2 0.00 0.00 0.00 27 1003.4
20260902013006 26 135 1.6 6.4 0.00 0.00 0.00 26 1003.5
20260902011505 27 134 4.8 12.9 0.00 0.00 0.00 25 1003.5
20260902010010 27 124 4.8 12.9 0.00 0.00 0.00 24 1003.4
20260902004512 27 117 6.4 14.5 0.00 0.00 0.00 23 1003.4
20260902003004 28 108 4.8 12.9 0.00 0.00 0.00 23 1003.5
20260902001503 28 136 6.4 12.9 0.00 0.00 0.00 23 1003.5
20260902000001 28 151 4.8 16.1 0.00 0.00 0.00 23 1003.7
20260901234601 28 117 8.0 17.7 0.00 0.00 0.00 21 1003.8
20260901233102 28 134 9.7 17.7 0.00 0.00 0.00 21 1003.9
20260901231558 28 124 9.7 17.7 0.00 0.00 0.00 22 1004.1
20260901230056 28 146 8.0 17.7 0.00 0.00 0.00 22 1004.3
20260901224557 27 134 6.4 16.1 0.00 0.00 0.00 23 1004.4
20260901223053 28 132 8.0 19.3 0.00 0.00 0.00 23 1004.6
20260901221551 28 119 9.7 19.3 0.00 0.00 0.00 22 1004.8
20260901220049 28 129 4.8 14.5 0.00 0.00 0.00 22 1004.9
20260901214552 27 155 8.0 17.7 0.00 0.00 0.00 22 1005.1
20260901213046 28 114 11.3 22.5 0.00 0.00 0.00 21 1005.3
20260901211545 28 176 9.7 25.7 0.00 0.00 0.00 23 1005.4
20260901210044 28 195 12.9 25.7 0.00 0.00 0.00 22 1005.4
20260901204539 28 106 11.3 20.9 0.00 0.00 0.00 24 1005.6
20260901203041 27 125 12.9 20.9 0.00 0.00 0.00 25 1005.9
20260901201532 26 107 11.3 14.5 0.00 0.00 0.00 26 1006.1
20260901200030 26 111 1.6 19.3 0.00 0.00 0.00 28 1006.3
20260901194529 26 210 3.2 12.9 0.00 0.00 0.00 28 1006.5
20260901193025 25 112 6.4 17.7 0.00 0.00 0.00 30 1006.8
20260901191523 25 90 9.7 17.7 0.00 0.00 0.00 29 1006.9
20260901190031 25 134 6.4 12.9 0.00 0.00 0.00 29 1007.1
20260901184526 25 114 6.4 24.1 0.00 0.00 0.00 31 1007.4
20260901183015 24 90 11.3 22.5 0.00 0.00 0.00 32 1007.6
20260901181524 24 132 9.7 20.9 0.00 0.00 0.00 33 1007.7
20260901180015 25 137 11.3 16.1 0.00 0.00 0.00 32 1007.7
20260901174515 25 112 4.8 17.7 0.00 0.00 0.00 31 1007.8
20260901173019 23 160 9.7 17.7 0.00 0.00 0.00 34 1008.0
20260901171505 22 135 8.0 17.7 0.00 0.00 0.00 37 1008.1
20260901170003 22 124 11.3 17.7 0.00 0.00 0.00 37 1008.3
20260901164600 21 168 3.2 12.9 0.00 0.00 0.00 41 1008.5
20260901163059 21 125 4.8 11.3 0.00 0.00 0.00 41 1008.6
20260901161552 20 148 4.8 9.7 0.00 0.00 0.00 44 1008.7
20260901160050 20 145 0.0 4.8 0.00 0.00 0.00 47 1008.9
20260901154546 18 316 0.0 4.8 0.00 0.00 0.00 52 1009.1
20260901153042 17 300 1.6 6.4 0.00 0.00 0.00 55 1009.1
20260901151542 16 301 0.0 0.0 0.00 0.00 0.00 60 1009.0
20260901150035 15 287 0.0 4.8 0.00 0.00 0.00 64 1009.1
20260901144533 14 299 1.6 6.4 0.00 0.00 0.00 67 1009.1
20260901143032 12 315 0.0 8.0 0.00 0.00 0.00 71 1009.1
20260901141531 11 336 1.6 6.4 0.00 0.00 0.00 75 1009.1
20260901140033 10 308 1.6 4.8 0.00 0.00 0.00 75 1009.0
20260901134534 8 306 1.6 6.4 0.00 0.00 0.00 75 1009.0
20260901133029 7 308 3.2 6.4 0.00 0.00 0.00 74 1009.0
20260901131534 6 313 1.6 6.4 0.00 0.00 0.00 75 1009.0
20260901130032 6 317 1.6 6.4 0.00 0.00 0.00 74 1009.0
20260901124528 6 305 1.6 4.8 0.00 0.00 0.00 75 1008.8
20260901123028 6 313 3.2 6.4 0.00 0.00 0.00 75 1008.7
20260901121529 6 312 3.2 8.0 0.00 0.00 0.00 76 1008.8
20260901120023 6 313 3.2 8.0 0.00 0.00 0.00 76 1008.9
20260901114520 7 309 0.0 3.2 0.00 0.00 0.00 74 1009.0
20260901113021 9 311 3.2 6.4 0.00 0.00 0.00 72 1009.1
20260901111518 10 323 3.2 9.7 0.00 0.00 0.00 72 1009.1
20260901110028 8 11 4.8 8.0 0.00 0.00 0.00 75 1008.8
20260901104514 6 311 1.6 4.8 0.00 0.00 0.00 74 1009.1
20260901103016 7 304 3.2 6.4 0.00 0.00 0.00 71 1009.1
20260901101519 9 304 1.6 3.2 0.00 0.00 0.00 68 1009.2
20260901100002 11 315 1.6 4.8 0.00 0.00 0.00 65 1009.1
20260901094600 12 355 1.6 4.8 0.00 0.00 0.00 64 1009.2
20260901093105 12 39 1.6 4.8 0.00 0.00 0.00 63 1009.2
20260901091607 12 40 1.6 4.8 0.00 0.00 0.00 62 1009.2
20260901090051 12 80 1.6 4.8 0.00 0.00 0.00 60 1009.4
20260901084548 13 87 0.0 0.0 0.00 0.00 0.00 59 1009.4
20260901083046 13 87 0.0 4.8 0.00 0.00 0.00 58 1009.3
20260901081544 13 188 0.0 0.0 0.00 0.00 0.00 57 1009.4
20260901080043 13 190 0.0 4.8 0.00 0.00 0.00 57 1009.5
20260901074538 14 190 1.6 4.8 0.00 0.00 0.00 55 1009.6
20260901073043 15 152 0.0 0.0 0.00 0.00 0.00 53 1009.5
20260901071535 15 152 1.6 3.2 0.00 0.00 0.00 54 1009.6
20260901070039 15 146 1.6 4.8 0.00 0.00 0.00 54 1009.6
20260901064541 15 166 3.2 4.8 0.00 0.00 0.00 53 1009.6
20260901063036 15 146 1.6 4.8 0.00 0.00 0.00 53 1009.7
20260901061530 15 144 0.0 4.8 0.00 0.00 0.00 53 1009.6